OBJECT B, 63211

Orbit data source: Space-Track

You're viewing an Uncataloged Satellite

Recently launched and/or uncataloged satellites may have evolving metadata. Metadata may include but not limited to: Owner, Maufacturer, Bus, Motor, and Mission.

OBJECT B, 63211 is a satellite in SSO that was launched on Sat, 15 Mar 2025 UTC via an FALCON 9 launch vehicle from the Air Force Western Test Range (AFWTR). Unknown objects in Earth's orbit typically refer to objects detected orbiting the Earth but have not yet been identified or cataloged. These objects could be anything from previously untracked satellites, spent rocket stages, debris from satellite collisions, or even natural meteoroids temporarily captured by Earth's gravity.

Loading next visibility...
Identifier
63211, 2025-052B
Orbit
SSO
Country
Flag of TBDTBD
Related business
Manufacturer
NUSHS
Mission
Operational Amateur Technology
Bus & Motor
CUBESAT 1U, Unknown motor
Mass
1 kg wet, 1 kg dry
Launch date (UTC)
2025-03-15 (1 year ago)
Launch vehicle
FALCON 9
Launch site
Air Force Western Test Range (AFWTR)
Object type
Unknown
Shape & HBR
Box, 0.2 m
Radar Cross Section
0.015 m², Medium (>0.1 m² and < 1m²)

Expand to show TLE details & history
Last TLE update: 4 hours ago

TLE from 4 hours ago
0 OBJECT B
1 63211U 25052B   26193.19830301  .00012775  00000-0  35542-3 0  9997
2 63211  97.3954  90.6525 0003503  46.2073 313.9461 15.36961712 73987
Epoch: 2026-07-12T04:45Z
TLE epoch observation values (Epoch: 2026-07-12T04:45:33.380Z)
Latitude
0.00004°
Longitude
89.1628°
Altitude
456.552 km
Speed
7.64 km/s
True Right ascension
06h 02m 36s
True Declination
0° 00' 00"
Sunlit
Object was in daylight at epoch
Visualization orbit readout
Latitude
Unknown
Longitude
Unknown
Altitude
Unknown
Speed
Unknown
Apparent Right ascension
Unknown
Apparent Declination
Unknown
Sunlit
N/A
Visualization observer readout
Local Sidereal Time
21:10:52
Azimuth
Unknown
Elevation
Unknown
Doppler factor
Unknown
Orbital elements
Apogee altitude
454.435 km
Perigee altitude
449.65 km
Semi-major axis
6,830.18 km
Eccentricity
0.00035
Inclination
97.3954°
RAAN
90.6525°
Arg. of periapsis
46.2073°
True anomaly
313.91719°
Mean anomaly
313.9461°
Eccentric anomaly
313.93165°
Mean motion
3.84499 °/min
Orbital period
93.63 mins
BSTAR
0.00035542
Loading maneuver chart data...
Computing Atmospheric mass density...
Loading historical data...
Loading historical data...
Loading historical data...
Loading historical data...
Loading historical data...
Loading historical data...
Loading historical data...

Documentation

Showing up to 5 results
|